SKY MEXICO-1

Last updated on Sun Apr 12 2026 00:02:53 GMT+0000 (Coordinated Universal Time)

1 40664U 15026B 26101.50509066 -.00000233 00000+0 00000+0 0 9992 2 40664 0.0201 229.1419 0002586 179.5496 254.0659 1.00272375 39780
UTC large
Height (km)
Speed (km/s)
/
Latitude / Longitude
Inclination (degrees)
Orbital Period (minutes)
Azimuth
Elevation
Range (km)
Doppler Factor

Next 0 passes for location: London (51.5072 / 0.1276)

Sorry there are no passes over London.
SKY MEXICO-1